Torna al catalogo

TITAN 3C TRANSTAGE DEB

AttivoLEO
NORAD 27721·DEBRIS·🇺🇸 United States

Lanciato Oct 15, 1965 da Cape Canaveral Space Force Station

Loading…

Prossimi Passaggi (prossime 24 ore)

TLE

AggiornatoSource: Space-Track

Epoca: Sep 14, 2026, 02:25 UTC

1 27721U 65082UT  26257.10137226  .00001413  00000-0  33401-3 0  9997
2 27721  31.6355 188.6758 0111169 291.1533  67.7250 14.48034127660890

Traccia TITAN 3C TRANSTAGE DEB in tempo reale con AllMySat

Download on the App Store